Location: Newark
(46.7000°N, 60.6000°W)
Time: 08:24:10
(UTC+00:00)

Vanguard 3 - Pass Details

Date: 02 November 2020
Orbit: 508 x 3262 km, 33.3° (Epoch: 29 November)

Event Time Altitude Azimuth Distance (km) Brightness Sun altitude
Rises 04:58:54 0° 168° (SSE) 5,163 - -54.7°
Reaches altitude 10° 05:07:28 10° 132° (SE) 5,017 - -53.9°
Exits shadow 05:08:15 10° 129° (SE) 5,063 11.1 -53.9°
Maximum altitude 05:09:29 10° 124° (SE) 5,153 11.2 -53.7°
Drops below altitude 10° 05:11:35 10° 116° (ESE) 5,351 11.3 -53.5°
Sets 05:23:07 0° 85° (E) 7,028 12.3 -52.3°
